Starlink 2166

operational
NORAD ID: 48558 Int'l Des: 2021-041 Owner: SPXS Country: US Constellation: starlink
LEOCIRCULARSTARLINK_TYPE

About Starlink 2166

Description loading...

Live Position

Loading 3D Globe...

Upcoming Passes

Altitude History

Altitude vs Time

uPlot chart will show altitude changes over time

Two-Line Element Set

1 48558U 21041F 25258.54866237 .00000050 00000-0 22283-4 0 9997
2 48558 53.0569 197.8548 0001605 84.1251 275.9921 15.06389160237944
Epoch: Sep 15, 2025 • Age: 20 hours

Current Status

Altitude 563.8 km
Velocity 7.58 km/s
Sub-Earth Point -45.98°S, 3.94°E
Launch Date May 15, 2021
Age 4.3 years
Type internet

Technical Details

Classification Payload
Mass 260.00 kg
Dry Mass 248.00 kg
Total Mass 260.00 kg
Length 0.20 m
Diameter 2.80 m
Span 9.00 m
Shape Box + pan
Manufacturer SPXS
Bus Type Starlink
Phase Status In Orbit
Owner/State SPXS/US

Large Constellations

Loading constellations...